Notices

What's New in latest Release from April 7th, 2021:

- Updated Glossary, including Speed of Maximum Gust, and Total Hourly Precipitation

- Updated national and regional climate services offices contacts and prices information

- Addition of station inventory lists for 1981-2010, 1971-2000, and 1961-1990 Normals.

If you haven't already, please take our survey and provide feedback about our website: https://eccc.sondage-survey.ca/f/LanguageSelection.aspx?s=442ca660-fcf1-47c0-95a9-59707d6fd709

Hourly Data Report for January 30, 2012

HALIFAX STANFIELD INT'L A
NOVA SCOTIA

44°52'48.060" N
63°30'00.050" W
145.40 m
8202250
71395
YHZ

Download Data

Hourly Data (January 2012)
Hourly Data Report for January 30, 2012
TIME
LST
Temp Definition
°C
Dew Point Definition
°C
Rel Hum Definition
%
Precip. Amount Definition
mm

Wind Dir Definition
10's deg

Wind Spd Definition
km/h
Visibility Definition
km
Stn Press Definition
kPa
Hmdx Definition


Wind Chill Definition


Weather Definition


00:00 -2.4 -6.8 72   23 15 24.1 99.68   -7 Mainly Clear
01:00 -2.6 -6.4 75   23 15 24.1 99.67   -8 Mainly Clear
02:00 -3.2 -6.0 81   21 17 24.1 99.68   -9 Clear
03:00 -3.5 -5.8 84   20 17 24.1 99.66   -9 Clear
04:00 -3.2 -6.2 80   21 17 24.1 99.62   -9 Mainly Clear
05:00 -2.6 -5.6 80   22 24 24.1 99.64   -9 Mainly Clear
06:00 -3.4 -5.4 86   21 17 24.1 99.63   -9 Mainly Clear
07:00 -2.5 -4.0 89   22 22 16.1 99.66   -9 Snow Showers
08:00 -2.5 -3.4 94   20 17 24.1 99.67   -8 Mainly Clear
09:00 -0.6 -2.1 90   20 22 24.1 99.68   -6 Mainly Clear
10:00 1.2 -2.1 79   21 26 24.1 99.67     Mainly Clear
11:00 3.3 -1.3 72   22 20 24.1 99.62     Mostly Cloudy
12:00 2.8 -2.5 68   29 13 24.1 99.55     Mostly Cloudy
13:00 2.6 -1.7 73   29 11 16.1 99.47     Snow Showers
14:00 0.9 -0.7 89   30 9 12.9 99.40     Snow Showers
15:00 0.3 -0.3 96   31 4 1.6 99.37     Snow Showers
16:00 0.3 -0.4 95   1 6 6.4 99.34     Snow Showers
17:00 0.1 -0.5 96   5 7 9.7 99.28     Snow Showers
18:00 -1.3 -1.7 97   35 22 0.6 99.33   -7 Moderate Snow Showers
19:00 -1.7 -2.2 96   32 28 1.2 99.34   -8 Snow Showers
20:00 -2.7 -3.3 96   33 24 2.0 99.45   -9 Snow Showers
21:00 -2.6 -3.6 93   31 22 24.1 99.56   -9 Mostly Cloudy
22:00 -3.1 -6.5 77   32 30 24.1 99.67   -11 Mostly Cloudy
23:00 -5.2 -8.2 79   34 30 24.1 99.85   -13 Mostly Cloudy

Notes on Data Quality.

Legend

  • E = Estimated
  • M = Missing
  • NA = Not Available*
  • [empty] = Indicates an unobserved value
Date modified: